CHINASAT 19 (ZX 19)

Last updated on Sat Jun 29 2024 00:02:41 GMT+0000 (Coordinated Universal Time)

1 54230U 22148A 24180.58521605 -.00000077 00000+0 00000+0 0 9991 2 54230 0.0144 66.5003 0004637 165.8314 58.8658 1.00270933 6161
UTC large
Height (km)
Speed (km/s)
/
Latitude / Longitude
Inclination (degrees)
Orbital Period (minutes)
Azimuth
Elevation
Range (km)
Doppler Factor

Next 0 passes for location: London (51.5072 / 0.1276)

Sorry there are no passes over London.